Погода в Бахте

Узбекистан     40°42′51″N   68°41′32″E
темп.,
°C
ветер,
м/с
пор.,
м/с
влажн.,
%
обл.,
%
осадки,
мм/ч
давл.,
гПа
погр.,
м
1 марта, пн
пн123:00+5в126045 0.0 102222
02:00+4вюв2258100 0.0 102124
05:00+4юв2354100 0.0 102132
08:00+4юв235210 0.0 102163
11:00+11ююв46315 0.0 1020433
14:00+16ююв45240 0.0 1019683
17:00+15ююв57270 0.0 1018414
20:00+10ююв48350 0.0 1021144
2 марта, вт
вт223:00+9ююв510360 0.0 1022183
02:00+9ю6123567 0.0 1022214
05:00+8ю493683 0.0 1022155
08:00+8ююз2342100 0.0 102360
11:00+12ююв3432100 0.0 1023471
14:00+15в2328100 0.0 1021695
17:00+15св1232100 0.0 1021462
20:00+12ссз3644100 0.0 1023157
3 марта, ср
ср323:00+9ссз4650100 0.0 1024203
02:00+8ссз3553100 0.0 1024176
05:00+5ссз356499 0.0 1024148
08:00+6сз126498 0.0 1024117
11:00+10з114998 0.0 1023438
14:00+13зсз114390 0.0 1021803
17:00+13ю224692 0.0 10201033
20:00+10ю3569100 0.4 1021280
4 марта, чт
чт423:00+10в4668100 1.0 1021224
02:00+9вюв356826 0.0 1020100
05:00+7ююв377814 0.0 1019152
08:00+8юв49750 0.1 1019255
11:00+14ююв585019 0.3 1017463
14:00+18ююз243797 0.0 10171247
17:00+14ююв475899 1.1 1018743
20:00+11юв487565 0.6 1020265
5 марта, пт
пт523:00+11ю347172 0.7 102287
02:00+7ссз7127495 0.0 1023595
05:00+3ссз6109098 1.9 1027622
08:00+3вюв1194100 4.8 1030177
11:00+5ююв227797 5.0 1029522
14:00+9ссв34454 0.0 10261172
17:00+11ссв23392 0.0 10241259
20:00+8с345441 0.0 1024115